Location: Cossonay
(46.5833°N, 6.4167°E)
Time: 23:01:06
(UTC+00:00)

NPP - Pass Details

Date: 07 June 2020
Orbit: 826 x 828 km, 98.7° (Epoch: 11 July)

Event Time Altitude Azimuth Distance (km) Brightness Sun altitude
Rises 01:11:24 0° 16° (NNE) 3,379 8.6 -17.2°
Reaches altitude 10° 01:13:47 10° 20° (NNE) 2,441 7.4 -17.0°
Maximum altitude 01:19:10 66° 102° (ESE) 902 3.9 -16.6°
Enters shadow 01:22:35 23° 180° (S) 1,702 4.8 -16.4°
